CZ-4C R/B, 52201

Orbit data source: Space-Track

CZ-4C R/B, 52201 is space debris in SSO originally from a launch on Wed, 06 Apr 2022 UTC launched from the Jiuquan Satellite Launch Center, China (JSC). Debris objects in space refer to the collection of defunct objects orbiting the Earth. Examples of debris include non-operational satellites, rocket bodies, and fragments generated from explosions, collisions, or faulty payload assembly.

Loading next visibility...
Identifier
52201, 2022-035B
Orbit
SSO
Country
Flag of CNCN / PRC
Related business
Manufacturer
SAST
Mission
Spacecraft
Bus & Motor
CZ-4 STAGE 3, Unknown motor
Mass
~1,000 kg wet, ~1,000 kg dry
Launch date (UTC)
2022-04-06 (4 years ago)
Launch vehicle
Unknown
Launch site
Jiuquan Satellite Launch Center, China (JSC)
Object type
Payload
Rocket body
Debris
Shape & HBR
Cyl, 2.5 m
Radar Cross Section
14.536 m², Large (>1 m²)

Expand to show TLE details & history
Last TLE update: 2 days ago

TLE from 2 days ago
0 CZ-4C R/B
1 52201U 22035B   26171.46681963  .00000455  00000-0  71334-4 0  9998
2 52201  98.2311 239.4091 0103547 223.1791 136.1264 14.74430454225939
Epoch: 2026-06-20T11:12Z
TLE epoch observation values (Epoch: 2026-06-20T11:12:13.216Z)
Latitude
-0.00003°
Longitude
162.67301°
Altitude
702.771 km
Speed
7.476 km/s
True Right ascension
15h 57m 38s
True Declination
0° 00' 00"
Sunlit
Object was in full shadow at epoch
Visualization orbit readout
Latitude
Unknown
Longitude
Unknown
Altitude
Unknown
Speed
Unknown
Apparent Right ascension
Unknown
Apparent Declination
Unknown
Sunlit
N/A
Visualization observer readout
Local Sidereal Time
21:23:34
Azimuth
Unknown
Elevation
Unknown
Doppler factor
Unknown
Orbital elements
Apogee altitude
716.735 km
Perigee altitude
571.31 km
Semi-major axis
7,022.16 km
Eccentricity
0.01035
Inclination
98.2311°
RAAN
239.4091°
Arg. of periapsis
223.1791°
True anomaly
136.94114°
Mean anomaly
136.1264°
Eccentric anomaly
136.53453°
Mean motion
3.68839 °/min
Orbital period
97.6 mins
BSTAR
0.000071334
Loading maneuver chart data...
Computing Atmospheric mass density...
Loading historical data...
Loading historical data...
Loading historical data...
Loading historical data...
Loading historical data...
Loading historical data...
Loading historical data...
Other satellites on launch #35 in the year 2022 (2022-04-06 UTC)

Documentation

Showing up to 5 results
|